Location: *
(0.1100°N, 5.5000°E)
Time: 12:20:02
(UTC+00:00)

Cosmos 1818 - Pass Details

Date: 06 December 2023
Orbit: 771 x 801 km, 65.0° (Epoch: 02 March)

Event Time Altitude Azimuth Distance (km) Brightness Sun altitude
Exits shadow 02:43:25 19° 74° (ENE) 1,820 5.8 -37.7°
Drops below altitude 10° 02:46:45 10° 112° (ESE) 2,358 6.8 -36.9°
Sets 02:49:50 0° 129° (SE) 3,284 7.7 -36.3°
